Location: Carrières
(48.9495°N, 2.0407°E)
Time: 05:51:13
(UTC+00:00)

Cosmos 1455 Rocket - Pass Details

Date: 28 January 2023
Orbit: 604 x 628 km, 82.5° (Epoch: 30 March)

Event Time Altitude Azimuth Distance (km) Brightness Sun altitude
Rises 17:32:14 0° 348° (NNW) 2,899 6.4 -8.4°
Reaches altitude 10° 17:34:29 10° 347° (NNW) 1,985 5.6 -8.8°
Maximum altitude 17:38:51 73° 263° (W) 644 3.3 -9.4°
Drops below altitude 10° 17:43:10 10° 179° (S) 1,955 5.8 -10.1°
Sets 17:45:22 0° 177° (S) 2,851 6.6 -10.5°
